Location: *
(34.6780°N, 135.8310°E)
Time: 19:29:41
(UTC+00:00)

SeaSat 1 - Pass Details

Date: 18 October 2019
Orbit: 745 x 747 km, 108.0° (Epoch: 16 November)

Event Time Altitude Azimuth Distance (km) Brightness Sun altitude
Rises 20:31:45 0° 28° (NNE) 3,194 6.0 -7.6°
Reaches altitude 10° 20:34:03 10° 32° (NNE) 2,267 5.3 -7.1°
Maximum altitude 20:38:55 61° 112° (ESE) 845 3.1 -6.1°
Drops below altitude 10° 20:43:46 10° 193° (SSW) 2,253 4.9 -5.1°
Sets 20:46:03 0° 197° (SSW) 3,173 5.6 -4.7°
